Погода в Белом Городке

Россия / Тверская область     56°57′50″N   37°31′03″E
темп.,
°C
ветер,
м/с
пор.,
м/с
влажн.,
%
обл.,
%
осадки,
мм/ч
давл.,
гПа
погр.,
м
7 марта, вс
вс700:00−10ююз498925 0.0 1009266
03:00−8ююз5138962 0.1 1004703
06:00−6ююз71492100 1.3 998955
09:00−4юз71592100 2.8 9941172
12:00−1юз71391100 1.1 9921115
15:00−2зсз4957100 1.8 9911314
18:00−6юз3674100 0.0 992125
21:00−7з4119399 0.2 992526
8 марта, пн
пн800:00−9зюз3988100 0.3 992292
03:00−9юз4109583 0.4 992572
06:00−8зюз4994100 0.8 993673
09:00−8сз3692100 1.2 995474
12:00−7ссз5886100 0.1 999702
15:00−7ссз5784100 0.1 1002724
18:00−9ссз3889100 0.1 1005663
21:00−11ссз3893100 0.1 1008433
9 марта, вт
вт900:00−13с389393 0.1 1010409
03:00−17ссз379695 0.1 1012246
06:00−20ссз279889 0.0 1015200
09:00−19с369276 0.0 1017290
12:00−16ссз358473 0.0 1018475
15:00−15ссз368172 0.0 1019602
18:00−18с269137 0.0 1019211
21:00−21с239719 0.0 102267
10 марта, ср
ср1000:00−23с22980 0.0 102428
03:00−25с22970 0.0 102520
06:00−25с12960 0.0 102619
09:00−22с12880 0.0 1027174
12:00−16ссв12730 0.0 1028411
15:00−13ссв11700 0.0 1027524
18:00−17ссв11860 0.0 102720
21:00−20ююз009028 0.0 102820
11 марта, чт
чт1100:00−20юз118853 0.0 102820
03:00−20ю118756 0.0 102820
06:00−21ююв228970 0.0 102720
09:00−17ююв248054 0.0 1026175
12:00−10ююв377331 0.0 1025405
15:00−8ююв598659 0.0 1023597
18:00−9ю41190100 0.0 1020502
21:00−9ю41294100 0.1 1019451